SES-14

Last updated on Tue Sep 16 2025 00:02:49 GMT+0000 (Coordinated Universal Time)

1 43175U 18012B 25258.50380226 .00000000 00000+0 00000+0 0 9998 2 43175 0.0139 124.2451 0001065 61.4893 302.8488 1.00268738 4278
UTC large
Height (km)
Speed (km/s)
/
Latitude / Longitude
Inclination (degrees)
Orbital Period (minutes)
Azimuth
Elevation
Range (km)
Doppler Factor

Next 0 passes for location: London (51.5072 / 0.1276)

Sorry there are no passes over London.